Lebanon, NH

4:23 AM EST on November 20, 2017 (GMT -0500)
Lebanon Municipal

Weather History for KLEB - November, 2011

Change the Weather History Date:

Saturday, November 12, 2011

  Actual Average Record
Temperature  
Mean Temperature 38 °F -  
Max Temperature 50 °F 45 °F 66 °F (2012)
Min Temperature 27 °F 30 °F 9 °F (1976)
Degree Days  
Heating Degree Days 26    
Moisture  
Dew Point 27 °F    
Average Humidity 67    
Maximum Humidity 89    
Minimum Humidity 39    
Precipitation  
Precipitation 0.00 in - - ()
Sea Level Pressure  
Sea Level Pressure 29.95 in    
Wind  
Wind Speed 5 mph (SSW)    
Max Wind Speed 14 mph    
Max Gust Speed 22 mph    
Visibility 10 miles    
Events      
Averages and records for this station are not official NWS values.
T = Trace of Precipitation, MM = Missing Value Source: NWS Daily Summary

Daily Weather History Graph

Daily Weather History Graph

Search for Another Location

Airport or City:

Trip Planner

Search our weather history database for the weather conditions in past years. The results will help you decide how hot, cold, wet, or windy it might be!

Date:

Astronomy

Nov. 12, 2011 Rise Set
Actual Time 6:38 AM EST 4:27 PM EST
Civil Twilight 6:08 AM EST 4:57 PM EST
Nautical Twilight 5:33 AM EST 5:32 PM EST
Astronomical Twilight 4:59 AM EST 6:06 PM EST
Moon 5:37 PM EST (11/12) 8:22 AM EST (11/12)
Length of Visible Light 10h 49m
Length of Day
9h 48m
Full, 97% of the Moon is Illuminated
Nov 12
Full
Nov 18
Last Quarter
Nov 25
New
Dec 2
First Quarter
Dec 10
Full

Hourly Weather History & Observations

Time (EST) Temp. Windchill Dew Point Humidity Pressure Visibility Wind Dir Wind Speed Gust Speed Precip Events Conditions
12:53 AM 37.0 °F 32.4 °F 24.1 °F 59% 29.84 in 10.0 mi West 5.8 mph - N/A   Overcast
1:53 AM 36.0 °F 31.1 °F 21.9 °F 57% 29.88 in 10.0 mi WNW 5.8 mph - N/A   Mostly Cloudy
2:53 AM 34.0 °F - 21.9 °F 61% 29.90 in 10.0 mi Calm Calm - N/A   Clear
3:53 AM 28.0 °F - 23.0 °F 81% 29.92 in 10.0 mi Calm Calm - N/A   Clear
4:53 AM 27.0 °F - 24.1 °F 89% 29.95 in 10.0 mi Calm Calm - N/A   Mostly Cloudy
5:53 AM 28.9 °F 21.9 °F 25.0 °F 85% 29.95 in 10.0 mi NE 6.9 mph - N/A   Scattered Clouds
6:53 AM 33.8 °F 27.0 °F 26.6 °F 75% 29.94 in 10.0 mi South 8.1 mph - N/A   Overcast
7:53 AM 34.0 °F 31.0 °F 28.9 °F 82% 29.98 in 10.0 mi South 3.5 mph - N/A   Mostly Cloudy
8:53 AM 39.0 °F 35.7 °F 28.0 °F 65% 29.96 in 10.0 mi SSE 4.6 mph - N/A   Clear
9:53 AM 42.1 °F 35.2 °F 28.0 °F 58% 29.97 in 10.0 mi South 12.7 mph 19.6 mph N/A   Clear
10:53 AM 45.0 °F 38.5 °F 28.9 °F 53% 29.94 in 10.0 mi South 13.8 mph 20.7 mph N/A   Clear
11:53 AM 46.9 °F - 28.9 °F 50% 29.92 in 10.0 mi SSW 11.5 mph 19.6 mph N/A   Clear
12:53 PM 48.0 °F - 28.0 °F 46% 29.90 in 10.0 mi SSW 12.7 mph 21.9 mph N/A   Mostly Cloudy
1:53 PM 50.0 °F - 28.0 °F 43% 29.87 in 10.0 mi South 13.8 mph - N/A   Clear
2:53 PM 50.0 °F - 26.1 °F 39% 29.88 in 10.0 mi SSW 12.7 mph - N/A   Clear
3:53 PM 48.9 °F - 28.0 °F 44% 29.91 in 10.0 mi SSW 9.2 mph - N/A   Partly Cloudy
4:53 PM 45.0 °F - 28.0 °F 52% 29.94 in 10.0 mi Calm Calm - N/A   Clear
5:53 PM 39.0 °F 34.0 °F 30.0 °F 70% 29.97 in 10.0 mi South 6.9 mph - N/A   Scattered Clouds
6:53 PM 34.0 °F - 28.9 °F 82% 29.99 in 10.0 mi Calm Calm - N/A   Clear
7:53 PM 34.0 °F 31.0 °F 28.9 °F 82% 30.01 in 10.0 mi NNE 3.5 mph - N/A   Clear
8:53 PM 32.0 °F - 28.0 °F 85% 30.03 in 10.0 mi Calm Calm - N/A   Clear
9:53 PM 32.0 °F - 28.0 °F 85% 30.04 in 10.0 mi Calm Calm - N/A   Clear
10:53 PM 30.0 °F - 26.1 °F 85% 30.06 in 10.0 mi Calm Calm - N/A   Clear
11:53 PM 28.9 °F - 26.1 °F 89% 30.06 in 10.0 mi Calm Calm - N/A   Clear